Weather History for Jamestown, ND

Change the Weather History Date:

Thursday, March 21, 2013

  Actual Average Record
Temperature  
Mean Temperature 2 °F 30 °F  
Max Temperature 17 °F 40 °F 80 °F (1907)
Min Temperature -13 °F 20 °F -13 °F (2013)
Degree Days  
Heating Degree Days 63 35  
Month to date heating degree days 1084 837  
Since 1 July heating degree days 7831 7596  
Cooling Degree Days 0 0  
Month to date cooling degree days 0 0  
Year to date cooling degree days 0 0  
Moisture  
Dew Point -4 °F    
Average Humidity 81    
Maximum Humidity 95    
Minimum Humidity 67    
Precipitation  
Precipitation T in 0.03 in 0.19 in (1954)
Month to date precipitation 0.27 0.53  
Year to date precipitation 0.76 1.38  
Sea Level Pressure  
Sea Level Pressure 30.17 in    
Wind  
Wind Speed 5 mph (East)    
Max Wind Speed 15 mph    
Max Gust Speed 17 mph    
Visibility 10 miles    
Events Snow    
T = Trace of Precipitation, MM = Missing Value Source: NWS Daily Summary

Daily Weather History Graph

Daily Weather History Graph

Search for Another Location

Airport:

Trip Planner

Search our weather history database for the weather conditions in past years. The results will help you decide how hot, cold, wet, or windy it might be!

Date:

Astronomy

Mar. 21, 2013 Rise Set
Actual Time 7:35 AM CDT 7:49 PM CDT
Civil Twilight 7:04 AM CDT 8:19 PM CDT
Nautical Twilight 6:29 AM CDT 8:55 PM CDT
Astronomical Twilight 5:52 AM CDT 9:32 PM CDT
Moon 2:02 PM CDT (3/21) 4:16 AM CDT (3/21)
Length of Visible Light 13h 14m
Length of Day
12h 14m
Waxing Gibbous, 69% of the Moon is Illuminated
Mar 21
Waxing Gibbous
Mar 27
Full
Apr 2
Last Quarter
Apr 10
New
Apr 18
First Quarter

Hourly Weather History & Observations

Time (CDT) Temp. Windchill Dew Point Humidity Pressure Visibility Wind Dir Wind Speed Gust Speed Precip Events Conditions
12:56 AM -6.0 °F - -11.9 °F 75% 30.23 in 10.0 mi Calm Calm - N/A   Clear
1:56 AM -9.0 °F -18.2 °F -14.1 °F 79% 30.22 in 10.0 mi NNE 3.5 mph - N/A   Clear
2:56 AM -11.9 °F -25.7 °F -17.0 °F 78% 30.20 in 10.0 mi NE 5.8 mph - N/A   Clear
3:56 AM -7.1 °F -23.9 °F -9.9 °F 87% 30.18 in 10.0 mi ENE 9.2 mph - N/A   Clear
4:56 AM -9.9 °F - -14.1 °F 82% 30.17 in 10.0 mi Calm Calm - N/A   Clear
5:56 AM -7.1 °F - -11.0 °F 83% 30.18 in 10.0 mi Calm Calm - N/A   Clear
6:56 AM -9.0 °F - -14.1 °F 79% 30.18 in 10.0 mi Calm Calm - N/A   Clear
7:56 AM -11.9 °F - -18.0 °F 74% 30.19 in 6.0 mi Calm Calm - N/A   Haze
8:56 AM -9.9 °F - -11.9 °F 91% 30.18 in 10.0 mi Calm Calm - N/A   Clear
9:56 AM -2.9 °F - -7.1 °F 82% 30.17 in 9.0 mi Calm Calm - 0.00 in Snow Light Snow
10:56 AM 1.0 °F -11.7 °F -5.1 °F 75% 30.17 in 10.0 mi ENE 6.9 mph - 0.00 in   Clear
11:56 AM 6.1 °F -4.3 °F -0.0 °F 76% 30.18 in 10.0 mi East 5.8 mph - N/A   Clear
12:56 PM 9.0 °F -2.2 °F 3.0 °F 77% 30.17 in 10.0 mi East 6.9 mph - N/A   Clear
1:56 PM 12.9 °F 3.8 °F 6.1 °F 74% 30.16 in 10.0 mi ESE 5.8 mph - N/A   Clear
2:56 PM 16.0 °F 5.3 °F 6.1 °F 65% 30.14 in 10.0 mi ESE 8.1 mph - N/A   Clear
3:56 PM 17.1 °F 3.6 °F 8.1 °F 68% 30.13 in 10.0 mi East 12.7 mph - N/A   Clear
4:56 PM 17.1 °F 3.0 °F 8.1 °F 68% 30.13 in 10.0 mi East 13.8 mph - 0.00 in   Clear
5:56 PM 16.0 °F 2.9 °F 7.0 °F 68% 30.13 in 10.0 mi East 11.5 mph - N/A   Clear
6:56 PM 14.0 °F 1.2 °F 7.0 °F 74% 30.14 in 10.0 mi East 10.4 mph - N/A   Clear
7:56 PM 10.0 °F 0.4 °F 5.0 °F 80% 30.17 in 10.0 mi East 5.8 mph - N/A   Clear
8:56 PM 5.0 °F -4.1 °F 1.9 °F 87% 30.19 in 10.0 mi East 4.6 mph - N/A   Clear
9:56 PM 3.0 °F - -2.0 °F 80% 30.19 in 10.0 mi Calm Calm - N/A   Clear
10:56 PM 1.9 °F -10.6 °F -0.9 °F 88% 30.19 in 10.0 mi ENE 6.9 mph - N/A   Clear
11:56 PM -0.0 °F - -4.0 °F 83% 30.19 in 10.0 mi Calm Calm - N/A   Clear